Location: Beccas
(43.4309°N, 0.1528°E)
Time: 20:47:01
(UTC+00:00)

ISS - Visible Passes

Search period start: 28 May 2023 00:00
Search period end: 07 June 2023 00:00
Orbit: 412 x 419 km, 51.6° (Epoch: 28 May)

Date Brightness Start Highest point End Pass type
(mag) Time Alt. Az. Time Alt. Az. Time Alt. Az.
28 May -3.8 20:47:15 10° WNW 20:50:36 73° SSW 20:52:34 23° SE visible
29 May -1.7 21:36:11 10° W 21:38:22 16° SW 21:38:39 16° SW visible
30 May -2.3 20:47:01 10° WNW 20:49:54 27° SW 20:51:54 16° S visible
01 Jun -1.0 20:48:15 10° WSW 20:48:55 10° SW 20:49:35 10° SW visible
